Regional Weather Roundup
Issued by NWS Bismarck, ND

Home | Current Version | Previous Version | Text Only | Print | Product List | Glossary On
Versions: 1 2 3 4 5 6 7 8 9 10 11 12 13 14 15 16 17 18 19 20 21 22 23 24 25 26 27 28 29 30 31 32 33 34 35 36 37 38 39 40 41 42 43 44 45 46 47 48 49 50
000
ASUS43 KBIS 060702
RWRBIS

NWR BROADCAST TEXT
NATIONAL WEATHER SERVICE BISMARCK ND
100 AM CST TUE DEC 06 2016

NOTE: "FAIR" INDICATES FEW OR NO CLOUDS BELOW 12,000 FEET WITH NO
SIGNIFICANT WEATHER AND/OR OBSTRUCTIONS TO VISIBILITY.


CITY           SKY/WX    TMP DP  RH WIND       PRES   REMARKS
WILLISTON      LGT SNOW   9   4  80 NW24      29.95R WCI -12
MINOT          SNOW      19  16  88 NW29      29.68R VSB 1/2 WCI   0
MINOT AFB      BLWGSNOW  19  16  86 NW31G39   29.67R VSB 1/4 WCI   0
BISMARCK       LGT SNOW  14  12  92 NW26G44   29.69S VSB 3/4 WCI  -6
DICKINSON      MIX PCPN   5   1  83 NW31G39   29.82R VSB 1   WCI -19
GARRISON         N/A     14  11  87 NW36G51   29.68R WCI  -8
HETTINGER ARPT CLOUDY     6   1  80 NW35G44   29.85R HAZE    WCI -19
JAMESTOWN      LGT SNOW  23  20  88 W22       29.46F FOG     WCI   8
CARRINGTON     LGT SNOW  25  23  93 NW21      29.50F WCI  10
HAZEN          HVY SNOW  16  14  93 NW31G43   29.77R VSB 1/4 WCI  -5
STANLEY        SNOW      10  10 100 NW26G44   29.79R VSB 1/2 WCI -11
TIOGA          SNOW       9   9 100 NW32G45   29.85R VSB 1/2 WCI -15
WATFORD CITY   LGT SNOW   9   5  85 NW25G33   29.90R WCI -13
$$

CITY           SKY/WX    TMP DP  RH WIND       PRES   REMARKS
GRAND FORKS    FOG       30  28  92 N17       29.36F VSB 3/4 WCI  18
GRAND FORKS AF LGT SNOW  29  29  97 N16       29.38F VSB 3/4 WCI  18
DEVILS LAKE    LGT SNOW  27  25  92 N29G39    29.47S FOG     WCI  11
FARGO          CLOUDY    27  22  81 SW23G33   29.43R WCI  12
GRAFTON        FOG       30  30 100 N21G26    29.42F VSB 1/4 WCI  17
GWINNER        CLOUDY    19  16  86 W29G40    29.54S WCI   1
LANGDON        LGT SNOW  27  27 100 N22G29    29.48F WCI  12
$$

CITY           SKY/WX    TMP DP  RH WIND       PRES   REMARKS
ABERDEEN       CLOUDY    17   8  67 W23G32    29.72S WCI  -1
MOBRIDGE       CLOUDY    13   5  70 W35G46    29.75F BLWGSNOWWCI -10
BUFFALO          N/A      7   0  73 NW29G43   29.82R WCI -16
RAPID CITY     CLEAR     14   2  58 NW15      29.88R WCI  -1
GLASGOW        CLOUDY     6  -1  73 W25       30.08R WCI -16
SIDNEY         LGT SNOW   8   3  80 NW32G40   29.95S WCI -16
WOLF POINT     CLOUDY     9  -1  64 NW14      30.08R WCI  -7
GLENDIVE       FLURRIES   7   0  73 NW30      29.98R WCI -16
MILES CITY     CLEAR      6  -3  66 NW17      30.07R WCI -13
BAKER          CLOUDY     5  -1  76 NW25G36   29.94R WCI -18
$$

CITY           SKY/WX    TMP DP  RH WIND       PRES   REMARKS
BILLINGS       CLOUDY    15   5  64 W6        30.02R WCI   6
GREAT FALLS    CLOUDY     2  -2  83 SW6       30.10R WCI  -9
$$




USA.gov is the U.S. government's official web portal to all federal, state and local government web resources and services.